Showing default

FLOCK 4G 20, 62636

Orbit data source: Space-Track

FLOCK 4G 20, 62636 is a payload satellite owned by Planet (US) in SSO that was launched on Tue, 14 Jan 2025 UTC via an FALCON 9 launch vehicle from the Air Force Western Test Range (AFWTR). Payload-class satellites include a variety of spacecraft equipped with specific instruments for various scientific and technological missions. These include communications satellites like Starlink; space stations such as the ISS; scientific satellites like the Hubble; Earth observation satellites from companies like Planet Labs, Umbra, and HawkEye 360; GPS; miniature CubeSats for education and research; and military/defense satellites.

Loading next visibility...
Identifier
62636, 2025-009AD
Orbit
SSO
Country
Flag of USUS
Related business
Manufacturer
Planet
Mission
Partially operational Commercial Imaging
Bus & Motor
CUBESAT 3U, Unknown motor
Mass
5.7 kg wet, 5.7 kg dry
Launch date (UTC)
2025-01-14 (1 year ago)
Launch vehicle
FALCON 9
Launch site
Air Force Western Test Range (AFWTR)
Object type
Payload
Rocket body
Debris
Shape & HBR
Box + 2 Pan, 1.0 m
Radar Cross Section
0.072 m², Medium (>0.1 m² and < 1m²)

Expand to show TLE details & history
Last TLE update: 15 hours ago

TLE from 15 hours ago
0 FLOCK 4G 20
1 62636U 25009AD  26124.75042676  .00087307  00000-0  18026-2 0  9995
2 62636  97.3876 208.1568 0003416 158.4996 201.6397 15.45529190 72391
Epoch: 2026-05-04T18:00Z
TLE epoch observation values (Epoch: 2026-05-04T18:00:36.872Z)
Latitude
-0°
Longitude
75.36803°
Altitude
435.111 km
Speed
7.649 km/s
True Right ascension
13h 52m 37s
True Declination
0° 00' 00"
Sunlit
Object was in full shadow at epoch
Visualization orbit readout
Latitude
Unknown
Longitude
Unknown
Altitude
Unknown
Speed
Unknown
Apparent Right ascension
Unknown
Apparent Declination
Unknown
Sunlit
N/A
Visualization observer readout
Local Sidereal Time
16:46:15
Azimuth
Unknown
Elevation
Unknown
Doppler factor
Unknown
Orbital elements
Apogee altitude
429.079 km
Perigee altitude
424.43 km
Semi-major axis
6,804.892 km
Eccentricity
0.00034
Inclination
97.3876°
RAAN
208.1568°
Arg. of periapsis
158.4996°
True anomaly
201.62527°
Mean anomaly
201.6397°
Eccentric anomaly
201.63248°
Mean motion
3.86644 °/min
Orbital period
93.11 mins
BSTAR
0.0018026
Loading maneuver chart data...
Computing Atmospheric mass density...
Loading historical data...
Loading historical data...
Loading historical data...
Loading historical data...
Loading historical data...
Loading historical data...
Loading historical data...

Documentation

Showing up to 5 results
|